Regional Weather Roundup
Issued by NWS Albany, NY

Home | Current Version | Previous Version | Text Only | Print | Product List | Glossary On
Versions: 1 2 3 4 5 6 7 8 9 10 11 12 13 14 15 16 17 18 19 20 21 22 23 24 25 26 27 28 29 30 31 32 33 34 35 36 37 38 39 40 41 42 43 44 45 46 47 48 49 50
000
ASUS41 KALY 280310
RWRALY

NEW YORK STATE HOURLY WEATHER ROUNDUP
NATIONAL WEATHER SERVICE ALBANY NY
1100 PM EDT WED AUG 27 2014

NOTE: "FAIR" INDICATES FEW OR NO CLOUDS BELOW 12,000 FEET WITH NO
SIGNIFICANT WEATHER AND/OR NO OBSTRUCTIONS TO VISIBILITY.

NYZ032-033-038>043-046>054-057>066-NYZ062>081-280400-
EAST


CITY           SKY/WX    TMP DP  RH WIND       PRES   REMARKS
ALBANY         CLOUDY    69  56  62 W10       29.92F
GLENS FALLS    CLOUDY    69  62  78 NE3       29.92S
POUGHKEEPSIE   PTCLDY    73  69  87 CALM      29.89F
MONTGOMERY     PTCLDY    71  68  90 CALM      29.90F
WHITE PLAINS   MOCLDY    74  67  78 CALM      29.88F
ISLIP          MOCLDY    74  66  76 SW5       29.87F
NEW YORK CITY  MOCLDY    78  66  66 E5        29.87F
CENTRAL PARK   PTCLDY    78  65  63 NE3       29.91F
$$

NYZ005>009-017-018-044>046-055-056-280400-
CENTRAL


CITY           SKY/WX    TMP DP  RH WIND       PRES   REMARKS
FULTON         CLEAR     62  57  83 W5        30.00S
SYRACUSE       PTCLDY    64  59  83 W7        30.00S
ROME           PTCLDY    63  59  87 CALM      30.00S
ELMIRA         CLEAR     66  58  75 E7        30.03R
BINGHAMTON     MOCLDY    61  56  83 CALM      30.03S
MONTICELLO     PTCLDY    68  64  88 NW3       29.99S
$$

NYZ026>034-041>043-280400-
NORTH


CITY           SKY/WX    TMP DP  RH WIND       PRES   REMARKS
WATERTOWN      MOCLDY    67  57  70 CALM      29.97S
FORT DRUM      NOT AVBL
MASSENA        MOCLDY    65  59  81 W5        29.96R
SARANAC LAKE   CLOUDY    61  56  83 CALM      29.98R
PLATTSBURGH    CLOUDY    68  58  70 W3        29.92S
$$

NYZ001>004-010>016-019>021-280400-
WEST


CITY           SKY/WX    TMP DP  RH WIND       PRES   REMARKS
NIAGARA FALLS  MOCLDY    64  55  72 N7        30.06S
BUFFALO        PTCLDY    64  56  75 N7        30.06S
DUNKIRK        CLEAR     67  56  67 N10       30.07R
JAMESTOWN      CLEAR     61  55  82 NW7       30.09S
WELLSVILLE     CLEAR     61  55  81 NW7       30.08F
ROCHESTER      CLEAR     62  56  80 W3        30.04S
PENN YAN       CLEAR     63  56  78 CALM      30.05R
$$

             KEY
       WCI = WIND CHILL INDEX
       VSB = VISIBILITY
       HX  = HEAT INDEX
$$



USA.gov is the U.S. government's official web portal to all federal, state and local government web resources and services.